DLH8PP EDDF-LMML

Flight info

Callsign DLH8PP
Flight time 2h 21m
Altitude 37000
Route ANEKI Y163 NATOR N850 ODINA DCT KALIK DCT XIBIL DCT ROTUN DCT ROSAS DCT OLLEK
Aircraft A320/M-SDE3FGHIRWY/LB1

Departure

Time 2026-05-04 20:20
Airport Frankfurt Main Airport (EDDF)

Arrival

Time 2026-05-04 22:41
Airport Malta International Airport (LMML)
Time Latitude Longitude Altitude Speed Heading
2026-05-04 19:13 50.04466 8.56485 356 ft 0 kts 159°
2026-05-04 19:56 50.04473 8.56481 348 ft 2 kts 159°
2026-05-04 19:57 50.04488 8.56472 369 ft 2 kts 159°
2026-05-04 19:57 50.04504 8.56463 363 ft 2 kts 159°
2026-05-04 19:57 50.04519 8.56459 359 ft 2 kts 190°
2026-05-04 19:57 50.04534 8.56466 363 ft 0 kts 209°
2026-05-04 20:01 50.04533 8.56465 356 ft 0 kts 209°
2026-05-04 20:02 50.04530 8.56455 356 ft 5 kts 237°
2026-05-04 20:02 50.04509 8.56370 363 ft 14 kts 250°
2026-05-04 20:02 50.04479 8.56241 360 ft 0 kts 250°
2026-05-04 20:03 50.04477 8.56235 359 ft 2 kts 250°
2026-05-04 20:04 50.04474 8.56216 361 ft 2 kts 252°
2026-05-04 20:04 50.04472 8.56210 361 ft 0 kts 252°
2026-05-04 20:04 50.04472 8.56208 356 ft 0 kts 252°
2026-05-04 20:05 50.04471 8.56206 356 ft 0 kts 252°
2026-05-04 20:05 50.04471 8.56202 356 ft 0 kts 252°
2026-05-04 20:05 50.04470 8.56201 363 ft 0 kts 252°
2026-05-04 20:05 50.04470 8.56200 363 ft 0 kts 252°
2026-05-04 20:06 50.04470 8.56199 363 ft 0 kts 252°
2026-05-04 20:06 50.04469 8.56194 362 ft 3 kts 252°
2026-05-04 20:06 50.04460 8.56150 358 ft 4 kts 251°
2026-05-04 20:07 50.04446 8.56090 359 ft 10 kts 250°
2026-05-04 20:07 50.04399 8.56030 356 ft 12 kts 179°
2026-05-04 20:07 50.04359 8.56053 364 ft 2 kts 155°
2026-05-04 20:07 50.04345 8.56062 358 ft 2 kts 158°
2026-05-04 20:08 50.04327 8.56071 356 ft 3 kts 164°
2026-05-04 20:08 50.04275 8.56053 359 ft 14 kts 219°
2026-05-04 20:08 50.04228 8.55889 356 ft 21 kts 249°
2026-05-04 20:08 50.04174 8.55667 356 ft 12 kts 250°
2026-05-04 20:09 50.04143 8.55536 354 ft 14 kts 250°
2026-05-04 20:09 50.04110 8.55399 359 ft 11 kts 250°
2026-05-04 20:09 50.04085 8.55291 354 ft 10 kts 250°
2026-05-04 20:09 50.04062 8.55196 356 ft 9 kts 250°
2026-05-04 20:10 50.04042 8.55110 355 ft 8 kts 250°
2026-05-04 20:10 50.04023 8.55030 360 ft 8 kts 250°
2026-05-04 20:10 50.03994 8.54910 357 ft 17 kts 250°
2026-05-04 20:10 50.03950 8.54719 355 ft 19 kts 250°
2026-05-04 20:11 50.03911 8.54552 348 ft 18 kts 250°
2026-05-04 20:11 50.03855 8.54357 350 ft 22 kts 235°
2026-05-04 20:11 50.03786 8.54158 350 ft 21 kts 249°
2026-05-04 20:11 50.03730 8.53935 348 ft 17 kts 249°
2026-05-04 20:12 50.03685 8.53749 354 ft 20 kts 249°
2026-05-04 20:12 50.03640 8.53569 346 ft 17 kts 249°
2026-05-04 20:12 50.03596 8.53390 337 ft 19 kts 250°
2026-05-04 20:12 50.03551 8.53196 339 ft 21 kts 250°
2026-05-04 20:13 50.03504 8.53003 335 ft 15 kts 250°
2026-05-04 20:13 50.03464 8.52842 337 ft 17 kts 249°
2026-05-04 20:13 50.03453 8.52797 335 ft 0 kts 249°
2026-05-04 20:14 50.03453 8.52796 335 ft 0 kts 249°
2026-05-04 20:18 50.03427 8.52696 332 ft 19 kts 246°
2026-05-04 20:19 50.03348 8.52596 335 ft 8 kts 189°
2026-05-04 20:19 50.03292 8.52593 332 ft 10 kts 181°
2026-05-04 20:19 50.03022 8.52584 336 ft 82 kts 181°
2026-05-04 20:19 50.02195 8.52587 335 ft 152 kts 180°
2026-05-04 20:20 50.01008 8.52581 688 ft 184 kts 180°
2026-05-04 20:20 49.99676 8.52613 1397 ft 194 kts 179°
2026-05-04 20:20 49.98291 8.52695 2073 ft 209 kts 178°
2026-05-04 20:20 49.96766 8.52809 2666 ft 229 kts 177°
2026-05-04 20:21 49.95164 8.52935 3756 ft 231 kts 177°
2026-05-04 20:21 49.93561 8.53062 4968 ft 231 kts 177°
2026-05-04 20:21 49.90353 8.53304 7264 ft 231 kts 179°
2026-05-04 20:22 49.88733 8.53417 8355 ft 234 kts 179°
2026-05-04 20:22 49.87102 8.53529 9454 ft 237 kts 179°
2026-05-04 20:22 49.85441 8.53645 10466 ft 240 kts 179°
2026-05-04 20:22 49.83759 8.53762 11429 ft 244 kts 179°
2026-05-04 20:23 49.82030 8.53879 12400 ft 248 kts 179°
2026-05-04 20:23 49.80305 8.53995 13353 ft 253 kts 179°
2026-05-04 20:23 49.78523 8.54111 14105 ft 265 kts 180°
2026-05-04 20:23 49.76608 8.53944 14471 ft 288 kts 186°
2026-05-04 20:24 49.74521 8.53664 14808 ft 312 kts 186°
2026-05-04 20:24 49.72278 8.53362 15090 ft 336 kts 186°
2026-05-04 20:24 49.69892 8.53041 15539 ft 351 kts 186°
2026-05-04 20:24 49.67434 8.52714 16281 ft 357 kts 186°
2026-05-04 20:25 49.64948 8.52387 17064 ft 361 kts 186°
2026-05-04 20:25 49.62426 8.52059 17832 ft 366 kts 186°
2026-05-04 20:25 49.59875 8.51729 18565 ft 370 kts 186°
2026-05-04 20:25 49.57298 8.51392 19250 ft 373 kts 186°
2026-05-04 20:26 49.54700 8.51050 19934 ft 376 kts 186°
2026-05-04 20:26 49.52082 8.50706 20613 ft 379 kts 186°
2026-05-04 20:26 49.49442 8.50357 21289 ft 382 kts 186°
2026-05-04 20:26 49.46783 8.50002 21947 ft 385 kts 186°
2026-05-04 20:27 49.44111 8.49646 22604 ft 388 kts 186°
2026-05-04 20:27 49.41411 8.49290 23186 ft 392 kts 186°
2026-05-04 20:27 49.38661 8.48931 23616 ft 400 kts 186°
2026-05-04 20:27 49.35878 8.48570 24086 ft 403 kts 186°
2026-05-04 20:28 49.33077 8.48207 24587 ft 405 kts 186°
2026-05-04 20:28 49.30256 8.47843 25084 ft 408 kts 186°
2026-05-04 20:28 49.27425 8.47481 25584 ft 410 kts 186°
2026-05-04 20:28 49.24578 8.47116 26086 ft 411 kts 186°
2026-05-04 20:29 49.21718 8.46746 26575 ft 413 kts 186°
2026-05-04 20:29 49.18846 8.46371 27039 ft 416 kts 186°
2026-05-04 20:29 49.15956 8.45991 27505 ft 418 kts 186°
2026-05-04 20:29 49.13052 8.45609 27961 ft 419 kts 186°
2026-05-04 20:30 49.10140 8.45227 28419 ft 421 kts 186°
2026-05-04 20:30 49.07213 8.44838 28859 ft 423 kts 187°
2026-05-04 20:30 49.04321 8.44038 29279 ft 424 kts 193°
2026-05-04 20:30 49.01450 8.43043 29865 ft 421 kts 194°
2026-05-04 20:31 48.98603 8.42052 30454 ft 418 kts 194°
2026-05-04 20:31 48.95772 8.41061 30978 ft 417 kts 194°
2026-05-04 20:31 48.92964 8.40082 31658 ft 410 kts 194°
2026-05-04 20:31 48.90248 8.39140 32455 ft 402 kts 194°
2026-05-04 20:32 48.87499 8.38189 33121 ft 399 kts 194°
2026-05-04 20:32 48.84836 8.37270 33680 ft 397 kts 194°
2026-05-04 20:32 48.82146 8.36344 34194 ft 396 kts 194°
2026-05-04 20:32 48.79461 8.35418 34614 ft 396 kts 194°
2026-05-04 20:33 48.76773 8.34480 34980 ft 397 kts 195°
2026-05-04 20:33 48.74080 8.33506 35322 ft 398 kts 195°
2026-05-04 20:33 48.71389 8.32509 35667 ft 399 kts 195°
2026-05-04 20:33 48.68687 8.31502 36018 ft 400 kts 195°
2026-05-04 20:34 48.65981 8.30500 36360 ft 401 kts 195°
2026-05-04 20:34 48.63268 8.29500 36697 ft 402 kts 195°
2026-05-04 20:34 48.60544 8.28504 36954 ft 404 kts 195°
2026-05-04 20:34 48.57824 8.27518 36998 ft 400 kts 195°
2026-05-04 20:35 48.52435 8.25575 37003 ft 397 kts 195°
2026-05-04 20:35 48.46925 8.24926 37002 ft 402 kts 176°
2026-05-04 20:36 48.41386 8.26245 37005 ft 406 kts 174°
2026-05-04 20:36 48.35687 8.27615 37006 ft 423 kts 174°
2026-05-04 20:37 48.29770 8.29036 37003 ft 436 kts 174°
2026-05-04 20:37 48.23763 8.30495 37005 ft 438 kts 174°
2026-05-04 20:38 48.17746 8.31957 37005 ft 438 kts 174°
2026-05-04 20:38 48.11719 8.33414 37002 ft 439 kts 174°
2026-05-04 20:39 48.05688 8.34874 37010 ft 439 kts 174°
2026-05-04 20:39 47.99654 8.36336 37012 ft 440 kts 174°
2026-05-04 20:40 47.93608 8.37799 37015 ft 440 kts 174°
2026-05-04 20:40 47.87557 8.39246 37007 ft 440 kts 174°
2026-05-04 20:41 47.81503 8.40699 37014 ft 441 kts 174°
2026-05-04 20:41 47.75445 8.42154 37023 ft 441 kts 174°
2026-05-04 20:42 47.69384 8.43595 36982 ft 441 kts 174°
2026-05-04 20:42 47.63300 8.44727 37019 ft 440 kts 177°
2026-05-04 20:43 47.57206 8.45518 37029 ft 440 kts 178°
2026-05-04 20:43 47.51107 8.46306 37033 ft 440 kts 178°
2026-05-04 20:44 47.45016 8.47186 37027 ft 440 kts 177°
2026-05-04 20:44 47.38927 8.48109 37027 ft 440 kts 177°
2026-05-04 20:45 47.33873 8.48862 37025 ft 439 kts 177°
2026-05-04 20:45 47.27787 8.49748 37016 ft 439 kts 177°
2026-05-04 20:46 47.21698 8.50632 37012 ft 440 kts 178°
2026-05-04 20:46 47.15612 8.51518 37008 ft 440 kts 178°
2026-05-04 20:47 47.09517 8.52404 37001 ft 440 kts 178°
2026-05-04 20:47 47.03420 8.53275 36988 ft 440 kts 178°
2026-05-04 20:48 46.97323 8.54159 36999 ft 440 kts 178°
2026-05-04 20:48 46.91226 8.55050 37011 ft 440 kts 178°
2026-05-04 20:49 46.85127 8.55931 37021 ft 441 kts 177°
2026-05-04 20:49 46.79027 8.56801 37034 ft 440 kts 178°
2026-05-04 20:50 46.72918 8.57667 37055 ft 442 kts 178°
2026-05-04 20:50 46.66812 8.58537 37061 ft 440 kts 178°
2026-05-04 20:51 46.60702 8.59414 37085 ft 441 kts 178°
2026-05-04 20:51 46.54589 8.60288 37104 ft 441 kts 178°
2026-05-04 20:52 46.48481 8.61139 37107 ft 441 kts 178°
2026-05-04 20:52 46.42380 8.61999 37108 ft 441 kts 178°
2026-05-04 20:53 46.36281 8.62870 37106 ft 440 kts 178°
2026-05-04 20:53 46.30182 8.63725 37108 ft 440 kts 178°
2026-05-04 20:54 46.24097 8.64588 37086 ft 439 kts 178°
2026-05-04 20:54 46.18004 8.65438 37087 ft 440 kts 178°
2026-05-04 20:55 46.11915 8.66396 37091 ft 443 kts 172°
2026-05-04 20:55 46.08989 8.67654 37092 ft 448 kts 161°
2026-05-04 20:55 46.06184 8.69649 37112 ft 451 kts 156°
2026-05-04 20:56 46.00621 8.73825 37091 ft 451 kts 156°
2026-05-04 20:56 45.95051 8.77967 37104 ft 451 kts 156°
2026-05-04 20:57 45.89467 8.82098 37111 ft 451 kts 156°
2026-05-04 20:57 45.83890 8.86222 37106 ft 451 kts 156°
2026-05-04 20:58 45.78318 8.90339 37101 ft 451 kts 156°
2026-05-04 20:58 45.72739 8.94442 37080 ft 450 kts 156°
2026-05-04 20:59 45.67188 8.98521 37076 ft 450 kts 156°
2026-05-04 20:59 45.61615 9.02616 37063 ft 450 kts 156°
2026-05-04 21:00 45.56038 9.06693 37066 ft 451 kts 157°
2026-05-04 21:00 45.50447 9.10770 37075 ft 451 kts 157°
2026-05-04 21:01 45.44854 9.14845 37078 ft 452 kts 157°
2026-05-04 21:01 45.39251 9.18925 37071 ft 452 kts 157°
2026-05-04 21:02 45.33640 9.22995 37074 ft 453 kts 157°
2026-05-04 21:02 45.28021 9.27053 37074 ft 453 kts 157°
2026-05-04 21:03 45.22398 9.31106 37069 ft 454 kts 157°
2026-05-04 21:03 45.16802 9.35144 37059 ft 455 kts 158°
2026-05-04 21:04 45.11160 9.39209 37062 ft 455 kts 158°
2026-05-04 21:04 45.05508 9.43267 37074 ft 456 kts 158°
2026-05-04 21:05 44.99844 9.47310 37078 ft 456 kts 158°
2026-05-04 21:05 44.94180 9.51340 37079 ft 456 kts 158°
2026-05-04 21:06 44.88511 9.55378 37093 ft 457 kts 158°
2026-05-04 21:06 44.82834 9.59421 37076 ft 458 kts 158°
2026-05-04 21:07 44.77146 9.63466 37078 ft 458 kts 159°
2026-05-04 21:07 44.71451 9.67492 37099 ft 458 kts 159°
2026-05-04 21:08 44.65752 9.71517 37103 ft 458 kts 158°
2026-05-04 21:08 44.60054 9.75535 37108 ft 458 kts 159°
2026-05-04 21:09 44.54358 9.79536 37099 ft 458 kts 159°
2026-05-04 21:09 44.48659 9.83525 37096 ft 458 kts 159°
2026-05-04 21:10 44.42962 9.87511 37093 ft 458 kts 159°
2026-05-04 21:10 44.37259 9.91509 37097 ft 459 kts 159°
2026-05-04 21:11 44.31552 9.95496 37105 ft 459 kts 159°
2026-05-04 21:11 44.25840 9.99463 37113 ft 459 kts 159°
2026-05-04 21:12 44.20127 10.03424 37110 ft 459 kts 159°
2026-05-04 21:12 44.14412 10.07391 37086 ft 459 kts 159°
2026-05-04 21:13 44.08697 10.11355 37094 ft 460 kts 159°
2026-05-04 21:13 44.02966 10.15315 37101 ft 460 kts 159°
2026-05-04 21:14 43.97225 10.19270 37106 ft 460 kts 159°
2026-05-04 21:14 43.91480 10.23213 37086 ft 462 kts 159°
2026-05-04 21:15 43.85751 10.27141 37089 ft 463 kts 160°
2026-05-04 21:15 43.79971 10.31094 37104 ft 464 kts 160°
2026-05-04 21:16 43.74181 10.35045 37076 ft 464 kts 159°
2026-05-04 21:16 43.68383 10.38999 37086 ft 465 kts 159°
2026-05-04 21:17 43.62574 10.42947 37095 ft 466 kts 159°
2026-05-04 21:17 43.56756 10.46899 37097 ft 466 kts 159°
2026-05-04 21:18 43.50942 10.50842 37091 ft 466 kts 159°
2026-05-04 21:18 43.45116 10.54770 37093 ft 466 kts 159°
2026-05-04 21:19 43.39292 10.58691 37091 ft 466 kts 159°
2026-05-04 21:19 43.33460 10.62609 37069 ft 467 kts 159°
2026-05-04 21:20 43.27623 10.66535 37080 ft 467 kts 159°
2026-05-04 21:20 43.21778 10.70452 37080 ft 468 kts 159°
2026-05-04 21:21 43.15918 10.74362 37089 ft 468 kts 159°
2026-05-04 21:21 43.10060 10.78271 37079 ft 469 kts 159°
2026-05-04 21:22 43.04194 10.82179 37082 ft 469 kts 159°
2026-05-04 21:22 42.98323 10.86076 37087 ft 469 kts 159°
2026-05-04 21:23 42.92448 10.89969 37103 ft 469 kts 159°
2026-05-04 21:23 42.86572 10.93858 37092 ft 469 kts 159°
2026-05-04 21:24 42.80692 10.97735 37093 ft 470 kts 159°
2026-05-04 21:24 42.74840 11.01719 37100 ft 471 kts 158°
2026-05-04 21:25 42.69055 11.05910 37079 ft 471 kts 156°
2026-05-04 21:25 42.63310 11.10083 37087 ft 471 kts 157°
2026-05-04 21:26 42.57498 11.14217 37091 ft 471 kts 158°
2026-05-04 21:26 42.51676 11.18318 37093 ft 471 kts 158°
2026-05-04 21:27 42.45861 11.22424 37093 ft 472 kts 158°
2026-05-04 21:27 42.40041 11.26532 37101 ft 471 kts 158°
2026-05-04 21:28 42.34221 11.30624 37095 ft 471 kts 157°
2026-05-04 21:28 42.28402 11.34712 37096 ft 472 kts 157°
2026-05-04 21:29 42.22568 11.38792 37095 ft 472 kts 157°
2026-05-04 21:29 42.16736 11.42875 37099 ft 472 kts 157°
2026-05-04 21:30 42.10895 11.46943 37109 ft 473 kts 158°
2026-05-04 21:30 42.05056 11.51008 37111 ft 473 kts 158°
2026-05-04 21:31 41.97239 11.56446 37102 ft 473 kts 158°
2026-05-04 21:32 41.91427 11.60466 37110 ft 473 kts 158°
2026-05-04 21:32 41.85573 11.64509 37112 ft 473 kts 158°
2026-05-04 21:33 41.79716 11.68553 37088 ft 474 kts 157°
2026-05-04 21:33 41.73847 11.72598 37095 ft 475 kts 157°
2026-05-04 21:34 41.67969 11.76631 37108 ft 475 kts 157°
2026-05-04 21:34 41.62082 11.80666 37107 ft 476 kts 157°
2026-05-04 21:35 41.56191 11.84704 37101 ft 476 kts 157°
2026-05-04 21:35 41.50300 11.88732 37108 ft 476 kts 157°
2026-05-04 21:36 41.44397 11.92752 37116 ft 476 kts 157°
2026-05-04 21:36 41.38499 11.96757 37118 ft 476 kts 157°
2026-05-04 21:37 41.32599 12.00766 37110 ft 476 kts 157°
2026-05-04 21:37 41.26712 12.04760 37125 ft 475 kts 157°
2026-05-04 21:38 41.20823 12.08732 37128 ft 474 kts 157°
2026-05-04 21:38 41.14938 12.12703 37129 ft 474 kts 157°
2026-05-04 21:39 41.09059 12.16674 37110 ft 474 kts 157°
2026-05-04 21:39 41.03172 12.20639 37115 ft 475 kts 157°
2026-05-04 21:40 40.97277 12.24588 37114 ft 475 kts 157°
2026-05-04 21:40 40.91379 12.28527 37116 ft 475 kts 157°
2026-05-04 21:41 40.85469 12.32427 37111 ft 475 kts 158°
2026-05-04 21:41 40.79501 12.36162 37118 ft 474 kts 159°
2026-05-04 21:42 40.73554 12.39814 37117 ft 475 kts 159°
2026-05-04 21:42 40.67573 12.43517 37112 ft 475 kts 159°
2026-05-04 21:43 40.61600 12.47244 37113 ft 476 kts 159°
2026-05-04 21:43 40.55613 12.50967 37114 ft 476 kts 159°
2026-05-04 21:44 40.49623 12.54686 37117 ft 476 kts 159°
2026-05-04 21:44 40.43631 12.58391 37108 ft 476 kts 159°
2026-05-04 21:45 40.37640 12.62094 37113 ft 476 kts 159°
2026-05-04 21:45 40.31649 12.65792 37121 ft 476 kts 159°
2026-05-04 21:46 40.25653 12.69474 37125 ft 476 kts 159°
2026-05-04 21:46 40.19663 12.73149 37106 ft 476 kts 159°
2026-05-04 21:47 40.13683 12.76812 37119 ft 475 kts 159°
2026-05-04 21:47 40.07697 12.80471 37126 ft 475 kts 159°
2026-05-04 21:48 40.01714 12.84121 37136 ft 475 kts 159°
2026-05-04 21:48 39.95728 12.87769 37124 ft 475 kts 159°
2026-05-04 21:49 39.89753 12.91404 37133 ft 474 kts 159°
2026-05-04 21:49 39.83765 12.95032 37134 ft 474 kts 159°
2026-05-04 21:50 39.77783 12.98656 37125 ft 474 kts 159°
2026-05-04 21:50 39.71842 13.02256 37117 ft 474 kts 160°
2026-05-04 21:51 39.65819 13.05889 37127 ft 473 kts 160°
2026-05-04 21:51 39.59848 13.09483 37131 ft 473 kts 160°
2026-05-04 21:52 39.53878 13.13069 37140 ft 473 kts 160°
2026-05-04 21:52 39.47948 13.16631 37118 ft 473 kts 160°
2026-05-04 21:53 39.41993 13.20202 37118 ft 474 kts 160°
2026-05-04 21:53 39.36016 13.23763 37145 ft 474 kts 160°
2026-05-04 21:54 39.30028 13.27325 37141 ft 473 kts 160°
2026-05-04 21:54 39.24038 13.30896 37137 ft 475 kts 160°
2026-05-04 21:55 39.18041 13.34466 37142 ft 475 kts 160°
2026-05-04 21:55 39.12038 13.38032 37144 ft 475 kts 160°
2026-05-04 21:56 39.06033 13.41582 37144 ft 475 kts 160°
2026-05-04 21:56 39.00028 13.45120 37130 ft 475 kts 160°
2026-05-04 21:57 38.94025 13.48663 37125 ft 475 kts 160°
2026-05-04 21:57 38.88012 13.52208 37126 ft 476 kts 160°
2026-05-04 21:58 38.81802 13.54834 37125 ft 467 kts 174°
2026-05-04 21:58 38.75439 13.56545 37112 ft 468 kts 173°
2026-05-04 21:59 38.69069 13.58275 37116 ft 468 kts 173°
2026-05-04 21:59 38.62686 13.60010 37117 ft 469 kts 173°
2026-05-04 22:00 38.56303 13.61751 37121 ft 469 kts 173°
2026-05-04 22:00 38.49910 13.63483 37106 ft 470 kts 173°
2026-05-04 22:01 38.43500 13.65203 37116 ft 471 kts 173°
2026-05-04 22:01 38.37085 13.66921 37120 ft 471 kts 173°
2026-05-04 22:01 38.33868 13.67786 36869 ft 473 kts 173°
2026-05-04 22:02 38.30651 13.68649 36597 ft 473 kts 173°
2026-05-04 22:02 38.27421 13.69512 36340 ft 475 kts 173°
2026-05-04 22:02 38.24183 13.70376 36080 ft 476 kts 173°
2026-05-04 22:02 38.20941 13.71245 35832 ft 476 kts 173°
2026-05-04 22:03 38.17708 13.72114 35579 ft 472 kts 173°
2026-05-04 22:03 38.14493 13.72978 35333 ft 474 kts 173°
2026-05-04 22:03 38.11252 13.73847 35096 ft 477 kts 173°
2026-05-04 22:03 38.08004 13.74716 34836 ft 478 kts 173°
2026-05-04 22:04 38.04743 13.75582 34593 ft 480 kts 173°
2026-05-04 22:04 38.01469 13.76451 34364 ft 481 kts 173°
2026-05-04 22:04 37.98190 13.77325 34121 ft 481 kts 173°
2026-05-04 22:04 37.94913 13.78194 33849 ft 482 kts 173°
2026-05-04 22:05 37.91634 13.79059 33601 ft 482 kts 173°
2026-05-04 22:05 37.88343 13.79927 33328 ft 483 kts 173°
2026-05-04 22:05 37.85052 13.80798 33070 ft 483 kts 173°
2026-05-04 22:05 37.81756 13.81672 32801 ft 484 kts 173°
2026-05-04 22:06 37.78461 13.82547 32543 ft 484 kts 173°
2026-05-04 22:06 37.75164 13.83422 32287 ft 485 kts 173°
2026-05-04 22:06 37.71861 13.84295 32032 ft 485 kts 173°
2026-05-04 22:06 37.68557 13.85165 31775 ft 486 kts 172°
2026-05-04 22:07 37.65248 13.86033 31524 ft 486 kts 172°
2026-05-04 22:07 37.61926 13.86904 31293 ft 487 kts 172°
2026-05-04 22:07 37.58606 13.87774 31046 ft 488 kts 172°
2026-05-04 22:07 37.55279 13.88647 30805 ft 489 kts 172°
2026-05-04 22:08 37.51946 13.89525 30562 ft 489 kts 172°
2026-05-04 22:08 37.48615 13.90405 30326 ft 490 kts 172°
2026-05-04 22:08 37.45277 13.91284 30056 ft 490 kts 172°
2026-05-04 22:08 37.41931 13.92161 29777 ft 491 kts 172°
2026-05-04 22:09 37.38583 13.93033 29503 ft 492 kts 172°
2026-05-04 22:09 37.35233 13.93903 29210 ft 492 kts 172°
2026-05-04 22:09 37.31885 13.94776 28936 ft 492 kts 172°
2026-05-04 22:09 37.28526 13.95655 28669 ft 493 kts 172°
2026-05-04 22:10 37.25174 13.96533 28398 ft 493 kts 172°
2026-05-04 22:10 37.21811 13.97409 28125 ft 494 kts 172°
2026-05-04 22:10 37.18450 13.98281 27558 ft 494 kts 172°
2026-05-04 22:10 37.15076 13.99155 26942 ft 495 kts 171°
2026-05-04 22:11 37.11704 14.00031 26312 ft 494 kts 171°
2026-05-04 22:11 37.08348 14.00906 25662 ft 490 kts 171°
2026-05-04 22:11 37.05028 14.01770 24996 ft 486 kts 171°
2026-05-04 22:11 37.01727 14.02628 24323 ft 481 kts 171°
2026-05-04 22:12 36.98508 14.03462 23629 ft 476 kts 171°
2026-05-04 22:12 36.95238 14.04309 22897 ft 472 kts 171°
2026-05-04 22:12 36.92035 14.05138 22241 ft 467 kts 171°
2026-05-04 22:12 36.88905 14.05946 21605 ft 463 kts 171°
2026-05-04 22:13 36.85724 14.06764 20967 ft 458 kts 171°
2026-05-04 22:13 36.82657 14.07550 20358 ft 454 kts 171°
2026-05-04 22:13 36.79534 14.08352 19733 ft 450 kts 171°
2026-05-04 22:13 36.76504 14.09132 19364 ft 435 kts 171°
2026-05-04 22:14 36.73608 14.09880 19244 ft 415 kts 171°
2026-05-04 22:14 36.70849 14.10592 19124 ft 396 kts 171°
2026-05-04 22:14 36.68207 14.11270 19009 ft 380 kts 171°
2026-05-04 22:14 36.65665 14.11922 18892 ft 365 kts 171°
2026-05-04 22:15 36.64036 14.12340 18789 ft 357 kts 171°
2026-05-04 22:15 36.61624 14.12957 18452 ft 352 kts 171°
2026-05-04 22:15 36.59235 14.13567 17998 ft 349 kts 171°
2026-05-04 22:15 36.56861 14.14172 17565 ft 347 kts 171°
2026-05-04 22:16 36.53746 14.14966 17003 ft 344 kts 171°
2026-05-04 22:16 36.51408 14.15562 16596 ft 342 kts 171°
2026-05-04 22:16 36.49840 14.15962 16327 ft 340 kts 171°
2026-05-04 22:16 36.47531 14.16552 15945 ft 338 kts 171°
2026-05-04 22:17 36.45233 14.17141 15567 ft 336 kts 171°
2026-05-04 22:17 36.42952 14.17723 15196 ft 334 kts 171°
2026-05-04 22:17 36.40683 14.18299 14829 ft 332 kts 171°
2026-05-04 22:17 36.38429 14.18871 14473 ft 330 kts 171°
2026-05-04 22:18 36.36183 14.19442 14093 ft 328 kts 171°
2026-05-04 22:18 36.33980 14.20003 13703 ft 327 kts 171°
2026-05-04 22:18 36.31762 14.20567 13310 ft 325 kts 171°
2026-05-04 22:18 36.29526 14.21134 12900 ft 323 kts 171°
2026-05-04 22:19 36.27362 14.21682 12523 ft 321 kts 170°
2026-05-04 22:19 36.25179 14.22235 12126 ft 319 kts 170°
2026-05-04 22:19 36.22978 14.22792 11729 ft 317 kts 170°
2026-05-04 22:19 36.20851 14.23331 11338 ft 316 kts 169°
2026-05-04 22:20 36.18707 14.23874 10942 ft 314 kts 169°
2026-05-04 22:20 36.16574 14.24414 10549 ft 312 kts 169°
2026-05-04 22:20 36.14451 14.24951 10153 ft 310 kts 169°
2026-05-04 22:20 36.12344 14.25486 9724 ft 309 kts 169°
2026-05-04 22:21 36.10251 14.26016 9251 ft 307 kts 169°
2026-05-04 22:21 36.08120 14.26554 8408 ft 318 kts 169°
2026-05-04 22:21 36.05927 14.27109 7576 ft 322 kts 169°
2026-05-04 22:21 36.03817 14.27644 7264 ft 297 kts 169°
2026-05-04 22:22 36.01867 14.28224 6973 ft 284 kts 158°
2026-05-04 22:22 36.00241 14.29554 6693 ft 280 kts 139°
2026-05-04 22:22 35.98815 14.31189 6400 ft 279 kts 135°
2026-05-04 22:22 35.97488 14.32879 6090 ft 270 kts 133°
2026-05-04 22:23 35.96208 14.34559 5659 ft 268 kts 133°
2026-05-04 22:23 35.94929 14.36230 5204 ft 267 kts 133°
2026-05-04 22:23 35.93644 14.37885 4714 ft 266 kts 134°
2026-05-04 22:23 35.92365 14.39507 4437 ft 257 kts 134°
2026-05-04 22:24 35.91183 14.40992 4634 ft 229 kts 135°
2026-05-04 22:24 35.90076 14.42372 4388 ft 224 kts 135°
2026-05-04 22:24 35.88980 14.43734 4078 ft 224 kts 135°
2026-05-04 22:24 35.87888 14.45089 3772 ft 222 kts 135°
2026-05-04 22:25 35.86804 14.46434 3469 ft 220 kts 135°
2026-05-04 22:25 35.85735 14.47760 3172 ft 218 kts 135°
2026-05-04 22:25 35.84668 14.49063 3019 ft 217 kts 137°
2026-05-04 22:25 35.83584 14.50350 3009 ft 216 kts 136°
2026-05-04 22:26 35.82498 14.51629 3010 ft 217 kts 137°
2026-05-04 22:26 35.81405 14.52914 3010 ft 218 kts 137°
2026-05-04 22:26 35.80327 14.54174 3009 ft 210 kts 137°
2026-05-04 22:26 35.79281 14.55406 3010 ft 207 kts 137°
2026-05-04 22:27 35.78241 14.56630 3009 ft 207 kts 137°
2026-05-04 22:27 35.77090 14.57665 3005 ft 205 kts 161°
2026-05-04 22:27 35.75689 14.57764 3012 ft 205 kts 193°
2026-05-04 22:27 35.74439 14.56950 3008 ft 206 kts 224°
2026-05-04 22:28 35.73714 14.55444 3008 ft 208 kts 256°
2026-05-04 22:28 35.73739 14.53681 3010 ft 211 kts 287°
2026-05-04 22:28 35.74421 14.52101 3014 ft 214 kts 301°
2026-05-04 22:28 35.75205 14.50540 3010 ft 215 kts 301°
2026-05-04 22:29 35.75990 14.48970 3011 ft 215 kts 300°
2026-05-04 22:29 35.76773 14.47400 3010 ft 215 kts 300°
2026-05-04 22:29 35.77556 14.45829 3010 ft 216 kts 300°
2026-05-04 22:29 35.78337 14.44259 3011 ft 215 kts 301°
2026-05-04 22:30 35.79118 14.42685 3009 ft 215 kts 300°
2026-05-04 22:30 35.79888 14.41132 3010 ft 215 kts 300°
2026-05-04 22:30 35.80658 14.39556 3010 ft 214 kts 300°
2026-05-04 22:30 35.81431 14.37987 3010 ft 213 kts 300°
2026-05-04 22:31 35.82202 14.36430 3010 ft 213 kts 300°
2026-05-04 22:31 35.82988 14.34842 3011 ft 221 kts 300°
2026-05-04 22:31 35.83823 14.33155 3010 ft 238 kts 301°
2026-05-04 22:31 35.84692 14.31401 3007 ft 243 kts 300°
2026-05-04 22:32 35.85577 14.29618 3007 ft 244 kts 300°
2026-05-04 22:32 35.86462 14.27826 2993 ft 245 kts 300°
2026-05-04 22:32 35.87341 14.26043 2993 ft 245 kts 300°
2026-05-04 22:32 35.88227 14.24248 2994 ft 245 kts 300°
2026-05-04 22:33 35.89112 14.22451 2994 ft 245 kts 300°
2026-05-04 22:33 35.89998 14.20656 2991 ft 245 kts 302°
2026-05-04 22:33 35.91216 14.19211 2989 ft 246 kts 334°
2026-05-04 22:33 35.92870 14.18848 2989 ft 244 kts
2026-05-04 22:34 35.94370 14.19657 2989 ft 229 kts 41°
2026-05-04 22:34 35.95462 14.20974 2989 ft 212 kts 46°
2026-05-04 22:34 35.96496 14.22237 2997 ft 211 kts 46°
2026-05-04 22:34 35.97547 14.23517 2998 ft 213 kts 45°
2026-05-04 22:35 35.98601 14.24799 2997 ft 212 kts 46°
2026-05-04 22:35 35.99650 14.26087 2997 ft 213 kts 49°
2026-05-04 22:35 36.00327 14.27648 2996 ft 202 kts 80°
2026-05-04 22:35 36.00249 14.29249 3001 ft 179 kts 110°
2026-05-04 22:36 35.99645 14.30468 3002 ft 157 kts 135°
2026-05-04 22:36 35.98910 14.31382 3031 ft 149 kts 136°
2026-05-04 22:36 35.98181 14.32290 3011 ft 145 kts 136°
2026-05-04 22:36 35.97481 14.33162 2999 ft 145 kts 135°
2026-05-04 22:37 35.96773 14.34045 2994 ft 145 kts 136°
2026-05-04 22:37 35.96068 14.34922 2991 ft 143 kts 136°
2026-05-04 22:37 35.95366 14.35796 2907 ft 143 kts 136°
2026-05-04 22:37 35.94664 14.36670 2759 ft 144 kts 136°
2026-05-04 22:38 35.93960 14.37546 2589 ft 143 kts 136°
2026-05-04 22:38 35.93266 14.38409 2406 ft 141 kts 136°
2026-05-04 22:38 35.92579 14.39264 2214 ft 139 kts 136°
2026-05-04 22:38 35.91899 14.40109 2034 ft 139 kts 136°
2026-05-04 22:39 35.91220 14.40954 1849 ft 139 kts 137°
2026-05-04 22:39 35.90543 14.41794 1657 ft 137 kts 136°
2026-05-04 22:39 35.89873 14.42628 1471 ft 136 kts 136°
2026-05-04 22:39 35.89205 14.43457 1297 ft 136 kts 136°
2026-05-04 22:40 35.88542 14.44281 1112 ft 135 kts 136°
2026-05-04 22:40 35.87884 14.45097 933 ft 134 kts 136°
2026-05-04 22:40 35.87232 14.45912 737 ft 133 kts 135°
2026-05-04 22:40 35.86586 14.46729 578 ft 133 kts 135°
2026-05-04 22:41 35.85938 14.47529 418 ft 133 kts 137°
2026-05-04 22:41 35.85281 14.48311 273 ft 123 kts 135°
2026-05-04 22:41 35.84879 14.48812 259 ft 39 kts 134°
2026-05-04 22:41 35.84720 14.49011 259 ft 37 kts 135°
2026-05-04 22:42 35.84493 14.49284 259 ft 42 kts 136°
2026-05-04 22:42 35.84434 14.49425 259 ft 11 kts 48°
2026-05-04 22:42 35.84447 14.49509 259 ft 11 kts 85°
2026-05-04 22:42 35.84491 14.49575 259 ft 10 kts 16°
2026-05-04 22:43 35.84551 14.49539 259 ft 10 kts 330°
2026-05-04 22:43 35.84610 14.49561 259 ft 10 kts 42°
2026-05-04 22:43 35.84649 14.49625 259 ft 9 kts 60°
2026-05-04 22:43 35.84696 14.49641 259 ft 0 kts 356°